Hourly Data Report for October 14, 2016

All times are specified in Local Standard Time (LST). Add 1 hour to adjust for Daylight Saving Time where and when it is observed.

BATHURST A
NEW BRUNSWICK

47°37'47.000" N
65°44'20.000" W
58.80 m
8100505
71574
ZBF

Download Data

Hourly Data (October 2016)
Hourly Data Report for October 14, 2016
Temp Definition
°C
Dew Point Temp Definition
°C
Rel Hum Definition
%
Wind Dir Definition
10's deg

Wind Spd Definition
km/h
Visibility Definition
km
Stn Press Definition
kPa
Hmdx Definition


Wind Chill Definition


Weather Definition


TIME
00:00 Legend Double Dagger 13.4 11.3 87 20 14 11.3 100.33     Rain Showers
01:00 Legend Double Dagger 12.5 11.9 96 21 7 8.1 100.33     Rain Showers,Fog
02:00 Legend Double Dagger 12.2 10.0 86 30 27 11.3 100.43     Cloudy
03:00 Legend Double Dagger 8.7 5.6 81 29 22 24.1 100.55     LegendNANA
04:00 Legend Double Dagger 6.8 3.4 79 29 17 24.1 100.74     LegendNANA
05:00 Legend Double Dagger 6.4 2.3 75 29 19 24.1 100.84     Cloudy
06:00 Legend Double Dagger 5.8 1.5 74 29 21 24.1 100.93     LegendNANA
07:00 Legend Double Dagger 5.0 0.0 70 29 23 24.1 101.05     LegendNANA
08:00 Legend Double Dagger 5.1 -0.9 65 30 26 24.1 101.19     Mostly Cloudy
09:00 Legend Double Dagger 5.2 -2.2 59 31 29 24.1 101.28     LegendNANA
10:00 Legend Double Dagger 6.7 -2.2 53 32 26 24.1 101.36     LegendNANA
11:00 Legend Double Dagger 6.9 -2.8 50 31 18 24.1 101.44     Mostly Cloudy
12:00 Legend Double Dagger 6.7 -3.3 49 32 22 24.1 101.48     LegendNANA
13:00 Legend Double Dagger 7.9 -3.6 44 30 25 24.1 101.50     LegendNANA
14:00 Legend Double Dagger 8.3 -3.5 43 31 17 24.1 101.52     Mainly Clear
15:00 Legend Double Dagger 8.5 -3.4 43 33 9 24.1 101.57     LegendNANA
16:00 Legend Double Dagger 7.9 -3.9 43 34 13 24.1 101.67     LegendNANA
17:00 Legend Double Dagger 6.9 -4.5 44 33 12 24.1 101.73     Mainly Clear
18:00 Legend Double Dagger 5.6 -4.3 49 34 6 24.1 101.83     LegendNANA
19:00 Legend Double Dagger 4.5 -4.5 52 31 7 24.1 101.93     LegendNANA
20:00 Legend Double Dagger 3.5 -4.2 57 33 4 24.1 101.92     Mainly Clear
21:00 Legend Double Dagger 0.4 -3.9 73 27 5 24.1 101.97     LegendNANA
22:00 Legend Double Dagger 2.0 -4.5 62 29 7 24.1 101.98     LegendNANA
23:00 Legend Double Dagger -1.2 -4.7 77 28 6 24.1 102.04   -3 Mainly Clear

Notes on Data Quality.

Legend

  • E = Estimated
  • M = Missing
  • NA = Not Available
  • ‡ = Partner data that is not subject to review by the National Climate Archives
Date modified: